Starlink 11683

operational
NORAD ID: 64239 Int'l Des: 2025-119 Owner: SPXS Country: US Constellation: starlink
LEOCIRCULAR

About Starlink 11683

Description loading...

Live Position

Loading 3D Globe...

Upcoming Passes

Altitude History

Altitude vs Time

uPlot chart will show altitude changes over time

Two-Line Element Set

1 64239U 25119G 26102.42340613 .00177398 00000-0 13546-2 0 9992
2 64239 43.0004 5.4642 0001002 330.5545 29.5266 15.70876789 50559
Epoch: Apr 12, 2026 • Age: 10 hours

Current Status

Altitude 366.4 km
Velocity 7.69 km/s
Sub-Earth Point -36.07°S, 87.86°E
Launch Date Jun 3, 2025
Age 0.8 years
Type internet

Technical Details

Classification Payload
Mass 960.00 kg
Dry Mass 910.00 kg
Total Mass 960.00 kg
Length 0.30 m
Diameter 4.10 m
Span 29.00 m
Shape Box + pan
Manufacturer SPXS
Bus Type Starlink V2MD
Phase Status In Orbit
Owner/State SPXS/US

Large Constellations

Loading constellations...